Regional Weather Roundup
Issued by NWS

Home | Current Version | Previous Version | Text Only | Print | Product List | Glossary Off
Versions: 1 2 3 4 5 6 7 8 9 10 11 12 13 14 15 16 17 18 19 20 21 22 23 24 25 26 27

000
ASUS45 KPSR 241910
RWRAZ

ARIZONA HOURLY REGIONAL WEATHER ROUNDUP
NATIONAL WEATHER SERVICE PHOENIX AZ
1200 PM MST MON JUL 24 2017

NOTE: FAIR INDICATES FEW OR NO CLOUDS BELOW 12,000 FEET WITH NO
SIGNIFICANT WEATHER AND/OR OBSTRUCTIONS TO VISIBILITY.

AZZ001>003-036-242000-
NORTHWEST ARIZONA

CITY           SKY/WX    TMP DP  RH WIND       PRES   REMARKS
BULLHEAD CITY  PTSUNNY   95  64  36 S10       29.85S
KINGMAN        CLOUDY    84  62  47 SW16      30.05S
$$

AZZ004>008-015-016-018-242000-
NORTH CENTRAL ARIZONA

CITY           SKY/WX    TMP DP  RH WIND       PRES   REMARKS
GRAND CANYON   CLOUDY    73  55  53 S10       30.26F
WILLIAMS       CLOUDY    66  59  77 SE7       30.27F
PRESCOTT       CLOUDY    75  64  68 SE20      30.17S
FLAGSTAFF      CLOUDY    64  57  78 CALM      30.30S
PAYSON         DRIZZLE   68  66  94 CALM      30.21S
PAGE           CLOUDY    83  58  42 MISG      30.07F
$$

AZZ009>014-017-242000-
NORTHEAST ARIZONA

CITY           SKY/WX    TMP DP  RH WIND       PRES   REMARKS
WINSLOW        CLOUDY    79  60  52 CALM      30.15F
SAINT JOHNS    CLOUDY    79  57  46 CALM      30.15F
WINDOW ROCK    PTSUNNY   77  57  50 NE9       30.25F
SHOW LOW       CLOUDY    64  61  88 N3        30.26S
$$

AZZ540-542>544-546-548-242000-
GREATER PHOENIX AREA

CITY           SKY/WX    TMP DP  RH WIND       PRES   REMARKS
PHOENIX        CLOUDY    80  71  74 VRB5      29.93F
BUCKEYE        CLOUDY    73  73 100 CALM      29.94F
GLENDALE       CLOUDY    77  75  94 CALM      29.95F
LUKE AFB       LGT RAIN  75 N/A N/A CALM      29.93F
SCOTTSDALE     CLOUDY    78  71  79 VRB3      29.97F
MESA-GATEWAY   PTSUNNY   79  73  83 CALM      29.95F
CHANDLER       MOSUNNY   81  73  78 N9        29.94F
$$

AZZ539-553-242000-
SOUTHWEST MARICOPA COUNTY AND PINAL COUNTY

CITY           SKY/WX    TMP DP  RH WIND       PRES   REMARKS
CASA GRANDE    MOSUNNY   81  74  79 N8        29.95F
GILA BEND      PTSUNNY   81  75  82 NE10      29.92S
$$

AZZ503-504-507>509-242000-
SOUTHEAST ARIZONA

CITY           SKY/WX    TMP DP  RH WIND       PRES   REMARKS
TUCSON         PTSUNNY   85  67  54 W7        30.01F
DAVIS-MONTHAN  PTSUNNY   88  65  46 NW5       30.00F
RYAN FIELD     MOSUNNY   84  70  61 CALM      30.00F
NOGALES        CLOUDY    80  65  59 W6        30.08F
SIERRA VISTA   PTSUNNY   75  66  73 N3        30.14S
DOUGLAS        MOSUNNY   84  62  47 VRB7      30.08F
SAFFORD        PTSUNNY   87  67  51 MISG      29.99F
$$

AZZ532-242000-
SOUTHWEST ARIZONA

CITY           SKY/WX    TMP DP  RH WIND       PRES   REMARKS
YUMA           CLOUDY    91  70  49 E18       29.84S
$$

CAZ041-043-047-048-061-525>527-560>570-242000-
SOUTHERN CALIFORNIA

CITY           SKY/WX    TMP DP  RH WIND       PRES   REMARKS
DOWNTOWN L.A.  PTSUNNY   85  62  46 CALM      29.90F
L.A. AIRPORT   PTSUNNY   76  65  68 W12       29.92F
SAN DIEGO      CLOUDY    73  63  70 W8        29.95S
BURBANK        MOSUNNY   81  55  40 E10       29.92F
ONTARIO        LGT RAIN  71  65  81 S6        29.94F
RIVERSIDE      CLOUDY    72  66  81 W5        29.94F
PALM SPRINGS   CLOUDY    95  62  33 VRB7      29.86F
EL CENTRO NAS  PTSUNNY   96  68  39 CALM      29.81F HX 101
IMPERIAL       MOSUNNY   98  70  40 SE9       29.79F HX 105
BLYTHE         CLOUDY    89  75  63 SE9       29.86F
NEEDLES        CLOUDY    97  67  37 S10G20    29.86F HX 101
$$

NVZ020-UTZ003-242000-
SOUTHERN NEVADA-UTAH

CITY           SKY/WX    TMP DP  RH WIND       PRES   REMARKS
LAS VEGAS      PTSUNNY   97  62  31 VRB7      29.89F
SALT LAKE CITY PTSUNNY   92  45  19 SW5       30.00F
$$

NMZ009-TXZ055-242000-
NEW MEXICO-WEST TEXAS

CITY           SKY/WX    TMP DP  RH WIND       PRES   REMARKS
ALBUQUERQUE    PTSUNNY   83  55  38 VRB3      30.17F
EL PASO        MOSUNNY   86  64  47 NE6       30.07F
$$


........................KEY........................
SKY/WX - SKY CONDITION/WEATHER
TMP    - TEMPERATURE IN FAHRENHEIT
DP     - DEW POINT IN FAHRENHEIT
RH     - RELATIVE HUMIDITY IN PERCENT
WIND   - DIRECTION AND SPEED IN MILES PER HOUR (MPH)
VRB    - VARIABLE WIND DIRECTION
PRES   - MEAN SEA LEVEL PRESSURE IN INCHES OF MERCURY
         F - FALLING PRESSURE   R - RISING PRESSURE
         S - STEADY PRESSURE
VSB    - VISIBILITY IN MILES
HX     - HEAT INDEX IN FAHRENHEIT
WCI    - WIND CHILL INDEX IN FAHRENHEIT
TC     - TEMPERATURE IN CELSIUS WHICH IS ALSO KNOWN AS
         TEMPERATURE IN CENTIGRADE
AFB    - AIR FORCE BASE
         LUKE AFB IS LUKE AIR FORCE BASE
         DAVIS-MONTHAN IS DAVIS-MONTHAN AIR FORCE BASE
NAS    - NAVAL AIR STATION
         EL CENTRO NAS IS EL CENTRO NAVAL AIR STATION
N/A    - NOT AVAILABLE





USA.gov is the U.S. government's official web portal to all federal, state and local government web resources and services.